Wind_Gust
6 6 6 8 8 6 7 7 8 8 9 9 9 9 11 10 13 13 12 14 14 14 14 14 14 14 13 12 11 9 11 12 13 13 15 15 15 15 14 15 14 15
7 7 7 7 8 8 8 7 8 8 9 9 9 9 10 12 13 14 14 14 15 14 14 14 15 14 15 14 13 13 13 13 14 14 16 16 15 15 16 16 15 15
6 7 7 7 7 8 8 8 9 9 9 10 11 12 12 12 13 13 14 13 13 13 14 14 15 15 15 14 13 12 14 14 14 13 15 15 16 17 17 17 18 18
6 5 6 6 7 8 7 9 9 10 10 13 12 11 12 11 12 14 13 15 12 14 14 15 15 14 14 13 13 12 13 14 13 13 15 16 16 17 17 17 18 21
4 6 6 6 7 8 9 10 10 10 11 12 12 13 14 14 14 14 13 13 13 14 15 15 15 16 15 14 13 13 14 15 14 14 16 17 17 17 17 18 19 21
6 5 5 7 8 10 11 11 9 8 10 12 11 12 11 12 14 14 14 14 14 15 15 15 15 15 15 13 13 16 14 15 14 15 18 18 18 18 17 17 18 19
6 6 7 9 11 10 11 10 9 10 11 9 12 14 11 14 14 14 13 12 13 15 14 14 15 15 14 13 14 15 15 14 15 18 20 18 18 19 18 18 18 19
6 5 7 9 11 10 11 9 9 10 9 11 13 10 13 14 13 11 11 12 13 13 13 13 13 13 13 13 15 15 15 15 15 19 21 20 19 19 18 17 17 18
4 6 7 10 11 10 10 10 9 9 9 12 12 12 12 13 12 11 11 12 13 13 12 13 13 12 12 13 15 15 16 16 17 18 20 19 20 19 17 17 19 19
5 5 7 9 11 10 11 9 10 10 9 12 11 11 13 11 12 12 13 13 13 13 13 13 14 13 12 15 17 16 17 18 18 19 20 20 19 17 17 19 17 19
4 6 8 9 10 10 11 10 10 10 10 13 12 12 10 10 12 11 13 14 16 14 13 14 12 12 13 14 14 14 16 17 18 19 20 19 17 16 17 17 17 16
3 6 8 10 11 11 10 10 11 11 12 12 12 12 11 11 12 12 13 13 13 12 11 11 11 11 13 13 14 14 15 15 15 16 17 16 15 15 15 15 16 15
4 7 8 9 11 12 11 11 12 12 13 13 10 10 12 11 10 11 11 10 11 11 13 12 11 11 12 12 12 13 14 14 14 15 14 15 15 14 13 13 15 15
4 8 9 10 11 11 11 11 12 13 13 13 11 12 12 10 10 10 9 10 11 11 10 10 12 14 13 12 12 12 13 12 13 14 15 14 14 15 15 14 14 14
6 7 9 11 12 12 11 10 12 12 12 11 11 12 11 9 8 9 11 13 12 12 12 13 15 14 12 11 12 12 12 13 12 12 13 14 13 14 14 15 14 13
8 8 10 10 11 12 11 10 11 12 13 13 12 10 9 8 10 11 12 12 12 13 12 13 13 11 14 15 12 12 12 12 13 13 12 12 13 13 13 14 14 14
10 9 10 10 10 11 10 11 11 12 12 11 10 9 9 8 10 12 11 10 11 12 13 13 13 14 17 17 18 16 12 12 13 13 12 13 13 12 13 13 12 13
10 10 10 10 10 11 11 11 11 12 12 10 10 9 8 8 11 9 9 8 10 11 12 12 12 15 17 18 17 17 13 13 11 12 13 12 12 12 11 11 11 12
11 11 11 11 11 12 11 12 11 11 10 10 10 7 7 10 8 9 9 8 10 12 12 11 10 14 16 17 17 17 15 12 12 11 13 11 11 11 11 11 10 12
11 12 12 11 11 11 11 11 11 10 8 8 9 8 9 9 8 9 8 9 9 10 10 10 11 13 14 16 15 15 14 11 10 11 10 10 10 10 10 10 11 11
11 11 12 11 11 12 11 11 11 10 10 8 10 10 10 10 10 9 8 8 8 8 11 12 12 13 13 15 14 13 13 10 10 10 10 10 10 9 9 10 9 10
13 12 12 12 12 11 12 11 10 12 12 8 7 7 6 7 8 9 9 9 8 8 11 11 11 13 13 14 14 12 11 10 9 10 10 10 10 10 9 9 9 10
12 14 13 13 13 13 12 12 12 12 9 9 10 8 9 8 8 8 7 8 8 7 11 10 10 12 13 14 14 12 10 10 9 10 10 11 9 8 8 10 9 9
13 14 15 14 13 14 13 12 12 12 11 11 13 11 9 7 9 10 7 7 8 8 7 11 8 10 12 13 14 14 11 10 8 10 10 10 9 9 9 10 12 20
13 12 15 15 15 13 14 13 13 14 11 10 9 10 10 9 9 11 9 7 6 7 12 11 9 9 12 12 13 12 11 8 8 10 10 10 9 11 9 10 12 12
12 13 13 15 15 13 12 14 12 11 12 11 10 10 11 9 9 11 11 7 6 7 7 7 9 8 10 12 12 12 11 9 9 12 11 9 8 10 12 12 12 13
Wind_Speed
3 2 3 3 3 2 3 4 4 5 5 4 5 4 4 4 5 5 5 5 5 5 6 6 6 5 5 4 5 4 6 7 7 7 9 9 8 9 7 8 8 8
3 2 2 2 3 4 4 4 5 5 5 5 5 5 5 5 6 6 5 6 5 6 5 5 6 5 5 5 5 5 7 7 8 7 9 9 7 8 9 9 8 6
3 4 4 4 4 4 5 5 5 5 5 5 5 5 5 5 6 6 5 6 5 6 6 6 5 5 5 4 4 7 7 7 8 7 8 8 7 8 7 6 6 8
2 2 2 3 4 5 5 5 5 5 5 6 7 5 5 5 5 6 5 6 5 6 5 5 5 5 5 5 4 6 7 8 7 7 8 7 7 7 7 6 7 8
2 2 3 3 4 5 5 6 6 6 6 5 5 6 6 5 5 5 5 6 5 6 5 6 5 6 5 5 6 7 8 8 7 7 8 8 8 8 7 8 8 8
3 3 3 5 5 6 6 7 6 6 5 6 6 5 5 5 5 6 6 6 6 5 6 5 6 7 6 6 7 9 7 8 7 7 9 9 8 8 7 7 8 8
4 3 4 6 7 7 7 6 5 5 6 4 4 6 5 6 6 6 6 5 6 6 6 6 7 7 7 6 8 8 8 8 8 8 9 8 8 9 9 8 8 7
3 2 4 6 7 6 7 6 6 6 4 5 7 5 5 6 6 5 5 6 5 6 7 7 7 7 7 6 8 8 9 7 8 9 10 9 8 9 8 7 6 7
2 3 5 7 7 6 7 6 6 6 4 6 5 5 5 6 6 6 6 6 6 6 6 7 7 7 6 7 8 9 9 9 9 10 10 9 10 9 8 6 8 8
3 3 5 6 7 6 7 6 5 5 5 6 5 5 6 5 6 6 6 6 7 7 7 7 7 7 7 9 10 9 9 10 10 10 9 8 8 8 8 8 8 8
3 4 5 6 6 6 6 5 5 5 5 6 5 6 6 6 6 6 6 7 6 7 6 7 6 7 8 8 8 8 10 9 9 8 8 8 8 8 8 7 8 8
3 4 5 7 7 6 6 6 5 5 6 5 5 6 7 7 7 6 6 7 6 6 6 6 7 7 8 8 8 8 8 8 7 7 7 7 7 7 7 6 7 7
3 5 5 6 7 7 6 5 6 6 6 6 4 6 7 7 6 7 5 6 6 6 7 7 7 7 8 8 7 7 8 8 7 7 7 7 7 7 6 6 6 6
2 5 5 6 6 6 6 6 6 6 6 5 5 7 7 6 6 6 5 5 6 6 6 5 7 7 7 7 7 7 7 7 7 7 7 7 7 7 7 6 6 6
4 4 5 7 7 7 7 6 6 6 6 6 5 5 5 5 5 5 5 7 7 7 7 6 7 6 5 6 7 7 6 7 6 6 6 6 6 7 7 7 7 5
5 5 6 6 7 7 7 6 6 6 6 6 6 5 5 4 5 5 6 6 7 7 7 7 6 5 7 10 8 7 7 6 6 6 6 6 6 6 6 7 7 6
6 6 6 7 7 7 6 7 6 6 6 6 6 6 6 5 5 7 7 6 7 7 8 7 6 5 8 10 11 11 7 7 6 6 6 6 6 6 6 6 6 7
6 7 6 6 7 7 7 6 6 6 6 6 6 6 5 4 7 6 6 5 5 7 7 5 6 7 8 10 11 10 9 7 6 5 5 6 5 6 5 5 6 6
7 7 7 7 7 7 7 6 7 6 6 6 6 4 4 6 6 6 6 5 5 7 6 5 5 7 8 9 10 10 10 7 6 5 5 6 6 6 6 6 5 6
7 7 8 7 7 7 7 7 7 7 6 5 5 5 5 6 6 6 5 6 5 5 6 5 5 6 8 8 9 9 9 8 6 6 5 5 6 6 5 5 6 5
7 7 8 7 7 7 7 7 7 6 6 5 5 4 5 5 5 6 5 5 5 5 5 6 4 7 7 8 8 8 8 6 6 5 5 5 5 5 5 5 5 5
8 7 8 8 8 7 7 7 7 7 7 5 4 4 4 5 5 5 5 6 5 5 6 6 5 7 7 7 7 7 7 5 6 6 6 5 6 5 5 5 5 5
8 9 8 8 8 8 8 7 7 6 5 5 6 5 5 4 5 5 4 5 5 4 6 5 5 6 6 6 6 6 5 5 5 5 5 6 5 5 5 4 5 5
8 9 9 9 8 9 8 7 6 6 7 6 7 6 5 4 4 5 4 4 5 5 4 6 5 5 6 5 6 6 4 6 5 6 6 5 5 5 4 5 7 12
8 8 9 10 9 8 8 8 8 8 6 6 6 6 6 5 4 5 4 4 4 5 7 6 4 5 6 5 5 5 4 4 5 6 6 5 5 6 5 5 6 7
7 8 8 9 9 8 7 8 7 6 7 7 6 6 6 5 4 4 5 4 4 4 4 4 5 4 5 5 5 5 4 4 3 6 6 6 5 5 6 5 5 5
Wind_Direction
11 354 342 3 6 26 32 39 33 49 38 31 35 18 27 28 19 23 18 7 14 20 9 5 6 4 0 355 8 12 58 49 45 41 40 41 33 35 28 24 28 36
0 4 1 11 20 35 43 52 52 49 42 34 27 18 22 30 23 21 16 13 10 13 11 7 7 2 351 6 11 30 56 53 51 47 50 43 36 44 42 35 36 36
15 22 21 26 30 53 57 52 52 47 48 38 30 29 24 26 20 17 13 20 7 9 12 7 3 357 350 355 17 57 59 58 58 51 57 47 35 39 33 34 40 40
8 42 35 37 59 73 66 65 53 47 41 41 30 19 30 26 24 19 12 20 13 12 4 7 7 352 341 347 34 65 66 65 57 55 56 43 37 42 31 25 37 37
4 29 45 73 84 79 73 67 59 51 51 45 35 30 31 27 22 20 16 14 15 10 5 8 4 360 342 8 34 60 56 59 43 49 55 45 30 30 23 26 31 38
26 49 65 84 79 82 75 73 64 57 56 51 39 33 32 29 28 24 16 15 10 12 11 10 12 2 357 19 56 59 55 56 45 46 56 48 38 30 27 25 30 34
0 25 71 86 85 83 82 74 67 60 52 54 53 42 28 34 30 23 15 12 10 19 18 16 9 12 2 39 63 65 56 54 48 46 54 45 41 39 33 32 31 31
1 28 96 98 95 88 83 76 68 57 49 46 54 38 38 35 31 20 16 12 22 19 21 17 13 18 11 25 66 62 57 49 45 47 53 47 42 42 33 30 24 32
21 80 117 112 104 93 84 78 70 64 50 55 50 41 40 43 29 24 19 18 30 28 22 22 9 21 22 49 60 63 63 57 52 53 53 50 48 42 37 26 34 33
50 94 108 110 104 105 98 87 81 70 60 59 52 46 44 33 38 28 29 28 33 29 27 23 24 13 42 51 57 58 61 63 62 60 57 53 53 48 37 36 35 34
61 100 113 112 113 111 102 93 83 75 66 63 54 52 42 41 33 30 37 33 33 27 22 30 27 29 47 51 53 56 63 65 63 61 56 55 50 46 46 39 38 41
84 107 113 123 121 111 104 96 85 75 70 61 54 59 53 46 40 32 39 35 34 29 35 37 34 40 52 57 60 63 66 66 64 62 57 52 45 39 36 37 42 40
116 120 123 129 121 115 110 99 88 81 73 63 52 59 60 52 37 44 35 40 33 34 35 35 46 49 58 65 68 70 72 71 68 62 59 53 45 41 31 28 37 40
138 127 125 120 115 114 110 103 96 85 77 73 64 60 56 50 44 49 36 45 38 43 36 41 50 56 61 69 67 69 76 72 70 67 63 57 50 42 35 28 23 39
128 124 123 117 117 117 112 106 98 89 82 72 61 60 59 49 51 47 51 53 45 44 43 38 47 49 60 77 85 75 74 74 66 62 61 63 57 50 41 35 26 22
128 128 124 120 123 123 120 115 106 101 93 80 67 61 60 59 51 55 53 49 55 49 47 44 40 37 61 76 80 92 81 78 72 61 58 54 57 54 47 43 37 23
129 134 133 131 131 127 125 120 115 107 95 85 74 63 54 56 56 58 49 42 49 55 55 48 38 41 59 78 81 87 90 81 77 69 59 55 50 48 44 40 37 39
138 139 137 136 134 136 131 128 121 109 101 96 85 75 70 66 64 56 53 46 54 61 62 54 52 41 66 77 84 85 89 87 72 71 62 54 50 48 42 38 38 40
142 147 145 145 146 140 136 132 128 117 113 104 91 90 84 74 69 70 58 51 60 71 66 51 62 40 62 75 83 84 83 84 73 69 66 54 52 49 44 39 33 40
150 150 152 152 147 141 140 139 137 135 129 117 103 85 84 85 78 76 67 62 66 71 74 57 58 33 56 66 76 80 80 82 78 70 62 55 51 48 46 44 40 45
152 155 149 150 149 145 143 142 142 138 134 127 112 108 96 91 89 86 77 64 61 68 78 58 38 39 56 62 68 76 75 80 70 72 67 59 50 46 50 51 48 52
156 156 151 149 150 149 146 146 153 153 146 138 115 97 84 90 83 82 77 74 60 66 77 61 34 36 59 68 71 73 81 79 75 73 72 62 47 36 38 59 59 54
160 154 152 153 154 154 156 155 152 149 142 135 122 126 112 91 86 80 80 89 81 66 83 76 47 36 54 74 80 92 94 81 85 82 72 66 47 27 28 52 82 68
163 157 153 156 158 164 166 167 159 149 153 152 147 146 134 128 110 96 92 94 97 88 79 86 61 45 53 66 84 89 99 109 108 101 78 80 75 46 38 33 70 84
162 159 156 159 166 171 168 162 166 167 157 140 141 136 132 134 121 112 100 77 90 108 98 89 69 50 51 54 77 93 102 107 115 110 99 81 94 77 51 56 45 68
162 160 161 163 170 169 171 172 160 140 144 140 138 138 135 136 130 123 112 94 79 85 99 104 89 50 42 49 66 84 101 115 119 115 113 111 101 104 91 57 60 65